This demonstration page uses our WeatherBlox Daily Observations layout. Learn more.

Hourly Observations for August 26, 2017

Temp ( °F °C ) Dew Point ( °F °C ) Humidity (%) Winds ( mph kmh ) Pressure ( in mb ) Visibility ( mi km ) Precip ( " mm )
12:15 am 00:15 Partly Cloudy 68 20 61 16 78 78 NNE 5 7 30.24 1024 10 16.09344 0 0
12:35 am 00:35 Partly Cloudy 64 18 63 17 94 94 Calm 30.24 1024 10 16.09344 0 0
12:55 am 00:55 Clear 64 18 61 16 88 88 Calm 30.24 1024 10 16.09344 0 0
1:15 am 01:15 Clear 61 16 61 16 100 100 Calm 30.24 1024 10 16.09344 0 0
1:35 am 01:35 Clear 63 17 61 16 94 94 Calm 30.24 1024 10 16.09344 0 0
1:55 am 01:55 Clear 63 17 61 16 94 94 Calm 30.24 1024 10 16.09344 0 0
2:15 am 02:15 Clear 63 17 61 16 94 94 Calm 30.24 1024 10 16.09344 0 0
2:35 am 02:35 Clear 63 17 61 16 94 94 N 3 6 30.24 1024 10 16.09344 0 0
2:55 am 02:55 Partly Cloudy 61 16 61 16 100 100 Calm 30.24 1024 10 16.09344 0 0
3:15 am 03:15 Partly Cloudy 63 17 61 16 94 94 N 5 7 30.24 1024 10 16.09344 0 0
3:35 am 03:35 Partly Cloudy 63 17 61 16 94 94 NNE 5 7 30.24 1024 10 16.09344 0 0
3:55 am 03:55 Partly Cloudy 64 18 61 16 88 88 NNE 5 7 30.24 1024 10 16.09344 0 0
4:15 am 04:15 Mostly Cloudy 63 17 61 16 94 94 Calm 30.24 1024 10 16.09344 0 0
4:35 am 04:35 Mostly Cloudy 59 15 59 15 100 100 Calm 30.24 1024 10 16.09344 0 0
4:55 am 04:55 Mostly Cloudy 61 16 61 16 100 100 Calm 30.24 1024 10 16.09344 0 0
5:15 am 05:15 Mostly Cloudy 59 15 59 15 100 100 Calm 30.24 1024 10 16.09344 0 0
5:35 am 05:35 Partly Cloudy 59 15 59 15 100 100 Calm 30.24 1024 10 16.09344 0 0
5:55 am 05:55 Clear 59 15 59 15 100 100 Calm 30.24 1024 10 16.09344 0 0
6:15 am 06:15 Clear 59 15 59 15 100 100 NNW 3 6 30.27 1025 10 16.09344 0 0
6:35 am 06:35 Partly Cloudy 61 16 61 16 100 100 Calm 30.27 1025 10 16.09344 0 0
6:55 am 06:55 Partly Cloudy 61 16 61 16 100 100 Calm 30.27 1025 10 16.09344 0 0
7:15 am 07:15 Partly Cloudy 61 16 59 15 94 94 Calm 30.27 1025 10 16.09344 0 0
7:35 am 07:35 Sunny 61 16 61 16 100 100 Calm 30.27 1025 10 16.09344 0 0
7:55 am 07:55 Sunny 63 17 61 16 94 94 Calm 30.27 1025 10 16.09344 0 0
8:15 am 08:15 Partly Cloudy 64 18 61 16 88 88 N 3 6 30.27 1025 10 16.09344 0 0
8:35 am 08:35 Partly Cloudy 66 19 59 15 78 78 Calm 30.27 1025 10 16.09344 0 0
8:55 am 08:55 Sunny 68 20 59 15 73 73 NNE 6 9 30.27 1025 10 16.09344 0 0
9:15 am 09:15 Sunny 70 21 61 16 73 73 NE 6 9 30.27 1025 10 16.09344 0 0
9:35 am 09:35 Sunny 70 21 61 16 73 73 NNE 6 9 30.27 1025 10 16.09344 0 0
9:55 am 09:55 Sunny 70 21 61 16 73 73 NNE 5 7 30.27 1025 10 16.09344 0 0
10:15 am 10:15 Partly Cloudy 72 22 61 16 69 69 NE 6 9 30.27 1025 10 16.09344 0 0
10:35 am 10:35 Partly Cloudy 72 22 63 17 73 73 ENE 5 7 30.27 1025 10 16.09344 0 0
10:55 am 10:55 Mostly Cloudy 73 23 61 16 65 65 NNE 3 6 30.27 1025 10 16.09344 0 0
11:15 am 11:15 Partly Cloudy 73 23 63 17 69 69 ENE 5 7 30.27 1025 10 16.09344 0 0
11:35 am 11:35 Sunny 73 23 63 17 69 69 ENE 6 9 30.27 1025 10 16.09344 0 0
11:55 am 11:55 Mostly Cloudy 75 24 63 17 65 65 ENE 3 6 30.27 1025 10 16.09344 0 0
12:15 pm 12:15 Partly Cloudy 75 24 61 16 61 61 SE 3 6 30.27 1025 10 16.09344 0 0
12:35 pm 12:35 Partly Cloudy 77 25 61 16 57 57 ENE 3 6 30.27 1025 10 16.09344 0 0
12:55 pm 12:55 Partly Cloudy 77 25 61 16 57 57 E 5 7 30.27 1025 10 16.09344 0 0
1:15 pm 13:15 Partly Cloudy 77 25 59 15 54 54 ENE 3 6 30.27 1025 10 16.09344 0 0
1:35 pm 13:35 Partly Cloudy 79 26 59 15 51 51 Calm 30.27 1025 10 16.09344 0 0
1:55 pm 13:55 Partly Cloudy 79 26 59 15 51 51 Calm 30.24 1024 10 16.09344 0 0
2:15 pm 14:15 Mostly Cloudy 77 25 59 15 54 54 NE 3 6 30.24 1024 10 16.09344 0 0
2:35 pm 14:35 Partly Cloudy 79 26 59 15 51 51 Calm 30.24 1024 10 16.09344 0 0
2:55 pm 14:55 Partly Cloudy 79 26 59 15 51 51 NE 6 9 30.24 1024 10 16.09344 0 0
3:15 pm 15:15 Partly Cloudy 79 26 61 16 54 54 NE 6 9 30.24 1024 10 16.09344 0 0
3:35 pm 15:35 Partly Cloudy 79 26 59 15 51 51 ENE 6 9 30.24 1024 10 16.09344 0 0
3:55 pm 15:55 Cloudy 79 26 59 15 51 51 NNE 5 7 30.24 1024 10 16.09344 0 0
4:15 pm 16:15 Cloudy 79 26 59 15 51 51 ENE 5 7 30.24 1024 10 16.09344 0 0
4:35 pm 16:35 Partly Cloudy 79 26 59 15 51 51 NE 6 9 30.21 1023 10 16.09344 0 0
4:55 pm 16:55 Sunny 79 26 59 15 51 51 NE 5 7 30.21 1023 10 16.09344 0 0
5:15 pm 17:15 Sunny 79 26 59 15 51 51 E 6 9 30.21 1023 10 16.09344 0 0
5:35 pm 17:35 Sunny 79 26 59 15 51 51 E 8 13 30.21 1023 10 16.09344 0 0
5:55 pm 17:55 Sunny 79 26 59 15 51 51 ESE 8 13 30.21 1023 10 16.09344 0 0
6:15 pm 18:15 Sunny 79 26 59 15 51 51 E 8 13 30.21 1023 10 16.09344 0 0
6:35 pm 18:35 Sunny 77 25 59 15 54 54 ESE 5 7 30.21 1023 10 16.09344 0 0
6:55 pm 18:55 Sunny 77 25 59 15 54 54 E 6 9 30.21 1023 10 16.09344 0 0
7:15 pm 19:15 Sunny 75 24 59 15 57 57 ESE 6 9 30.21 1023 10 16.09344 0 0
7:35 pm 19:35 Sunny 73 23 59 15 61 61 Calm 30.21 1023 10 16.09344 0 0
7:55 pm 19:55 Clear 73 23 59 15 61 61 ESE 3 6 30.21 1023 10 16.09344 0 0
8:15 pm 20:15 Clear 73 23 59 15 61 61 Calm 30.21 1023 10 16.09344 0 0
8:35 pm 20:35 Clear 72 22 59 15 65 65 Calm 30.24 1024 10 16.09344 0 0
8:55 pm 20:55 Clear 72 22 59 15 65 65 Calm 30.24 1024 10 16.09344 0 0
9:15 pm 21:15 Clear 70 21 61 16 73 73 Calm 30.24 1024 10 16.09344 0 0
9:35 pm 21:35 Clear 68 20 63 17 83 83 Calm 30.24 1024 10 16.09344 0 0
9:55 pm 21:55 Clear 66 19 63 17 88 88 Calm 30.24 1024 10 16.09344 0 0
10:15 pm 22:15 Clear 64 18 63 17 94 94 Calm 30.24 1024 10 16.09344 0 0
10:35 pm 22:35 Clear 64 18 63 17 94 94 Calm 30.24 1024 10 16.09344 0 0
10:55 pm 22:55 Clear 64 18 63 17 94 94 Calm 30.27 1025 10 16.09344 0 0
11:15 pm 23:15 Partly Cloudy 64 18 63 17 94 94 Calm 30.24 1024 10 16.09344 0 0
11:35 pm 23:35 Mostly Cloudy 66 19 63 17 88 88 Calm 30.24 1024 10 16.09344 0 0
11:55 pm 23:55 Mostly Cloudy 68 20 63 17 83 83 Calm 30.27 1025 10 16.09344 0 0

Powered by AerisWeather